Change the Weather History Date:

Wednesday, May 1, 2013

  Actual Average Record
Temperature  
Mean Temperature 50 °F -  
Max Temperature 55 °F 65 °F 81 °F (2012)
Min Temperature 45 °F 45 °F 35 °F (2006)
Degree Days  
Heating Degree Days 15    
Moisture  
Dew Point 46 °F    
Average Humidity 89    
Maximum Humidity 100    
Minimum Humidity 74    
Precipitation  
Precipitation 0.04 in 0.10 in - ()
Sea Level Pressure  
Sea Level Pressure 30.18 in    
Wind  
Wind Speed 8 mph ()    
Max Wind Speed 13 mph    
Max Gust Speed -    
Visibility 4.4 miles    
Events Rain , Thunderstorm    
Averages and records for this station are not official NWS values.
T = Trace of Precipitation, MM = Missing Value Source: Averaged Metar Reports

Daily Weather History Graph

Daily Weather History Graph

Search for Another Location

Airport or City:

Trip Planner

Search our weather history database for the weather conditions in past years. The results will help you decide how hot, cold, wet, or windy it might be!

Date:

Astronomy

May. 01, 2013 Rise Set
Actual Time 5:39 AM CEST 8:22 PM CEST
Civil Twilight 5:02 AM CEST 8:58 PM CEST
Nautical Twilight 4:15 AM CEST 9:46 PM CEST
Astronomical Twilight 3:19 AM CEST 10:43 PM CEST
Moon 1:22 AM CEST (5/1) 10:55 AM CEST (5/1)
Length of Visible Light 15h 56m
Length of Day
14h 43m
Waning Gibbous, 62% of the Moon is Illuminated
May 1
Waning Gibbous
May 2
Last Quarter
May 10
New
May 18
First Quarter
May 25
Full

Hourly Weather History & Observations

Time (CEST) Temp. Windchill Dew Point Humidity Pressure Visibility Wind Dir Wind Speed Gust Speed Precip Events Conditions
12:00 AM 46.4 °F 40.7 °F 44.6 °F 93% 30.15 in 4.3 mi North 12.7 mph - N/A Rain Light Rain
12:30 AM 46.4 °F 40.7 °F 44.6 °F 93% 30.15 in 4.3 mi North 12.7 mph - N/A Rain Light Rain
1:00 AM 46.4 °F 40.7 °F 44.6 °F 93% 30.15 in 4.3 mi North 12.7 mph - N/A   Overcast
1:30 AM 46.4 °F 41.9 °F 44.6 °F 93% 30.18 in 4.3 mi North 9.2 mph - N/A   Overcast
2:00 AM 47 °F - 45 °F 89% 30.21 in 4 mi North 8.9 mph - - Rain Light Rain
2:00 AM 46.4 °F 41.9 °F 44.6 °F 93% 30.18 in 3.7 mi NNW 9.2 mph - N/A   Overcast
2:30 AM 46.4 °F 41.5 °F 44.6 °F 93% 30.18 in 3.7 mi North 10.4 mph - N/A   Overcast
3:00 AM 46.4 °F 41.5 °F 44.6 °F 93% 30.18 in - North 10.4 mph - N/A   Light Drizzle
3:14 AM 46.4 °F 41.9 °F 44.6 °F 93% 30.18 in 1.7 mi North 9.2 mph - N/A   Light Drizzle
3:30 AM 44.6 °F 38.8 °F 44.6 °F 100% 30.18 in 1.7 mi North 11.5 mph - N/A   Drizzle
4:00 AM 44.6 °F 39.2 °F 44.6 °F 100% 30.18 in 1.8 mi North 10.4 mph - N/A   Light Drizzle
4:30 AM 44.6 °F 39.7 °F 44.6 °F 100% 30.18 in - North 9.2 mph - N/A   Light Drizzle
5:00 AM 44.6 °F 40.2 °F 44.6 °F 100% 30.18 in - North 8.1 mph - N/A   Light Drizzle
5:30 AM 44.6 °F 41.4 °F 44.6 °F 100% 30.21 in - North 5.8 mph - N/A   Overcast
5:53 AM 44.6 °F 42.2 °F 44.6 °F 100% 30.21 in 1.6 mi North 4.6 mph - N/A   Overcast
6:00 AM 44.6 °F 42.2 °F 44.6 °F 100% 30.21 in 1.6 mi North 4.6 mph - N/A   Overcast
6:30 AM 44.6 °F 42.2 °F 44.6 °F 100% 30.21 in 1.3 mi North 4.6 mph - N/A   Overcast
7:00 AM 44.6 °F 43.1 °F 44.6 °F 100% 30.21 in 1.6 mi North 3.5 mph - N/A   Overcast
7:30 AM 46.4 °F 45.2 °F 44.6 °F 93% 30.21 in 1.8 mi North 3.5 mph - N/A   Overcast
8:00 AM 46 °F - 45 °F 96% 30.26 in 2 mi NNE 4.5 mph - -   Mist
8:00 AM 46.4 °F 45.2 °F 44.6 °F 93% 30.21 in 1.9 mi North 3.5 mph - N/A   Overcast
8:11 AM 46.4 °F 45.2 °F 44.6 °F 93% 30.21 in 2.2 mi North 3.5 mph - N/A   Overcast
8:30 AM 46.4 °F 43.5 °F 44.6 °F 93% 30.21 in 2.5 mi NNE 5.8 mph - N/A   Overcast
8:38 AM 46.4 °F 42.9 °F 44.6 °F 93% 30.21 in 3.7 mi NE 6.9 mph - N/A   Overcast
9:00 AM 48.2 °F - 44.6 °F 87% 30.21 in 5.0 mi ENE 9.2 mph - N/A   Overcast
9:30 AM 48.2 °F - 44.6 °F 87% 30.21 in 6.2 mi ENE 11.5 mph - N/A   Overcast
10:00 AM 48.2 °F - 42.8 °F 82% 30.24 in 6.2 mi ENE 9.2 mph - N/A   Overcast
10:30 AM 48.2 °F - 44.6 °F 87% 30.24 in 6.2 mi ENE 10.4 mph - N/A   Overcast
11:00 AM 48.2 °F - 44.6 °F 87% 30.24 in 6.2 mi ENE 10.4 mph - N/A   Overcast
11:30 AM 48.2 °F - 44.6 °F 87% 30.24 in 6.2 mi East 9.2 mph - N/A   Overcast
12:00 PM 48.2 °F - 44.6 °F 87% 30.24 in 6.2 mi ENE 9.2 mph - N/A   Overcast
12:30 PM 50.0 °F - 46.4 °F 87% 30.21 in 5.6 mi ENE 9.2 mph - N/A   Overcast
1:00 PM 50.0 °F - 46.4 °F 87% 30.21 in 5.0 mi East 9.2 mph - N/A   Overcast
1:30 PM 51.8 °F - 46.4 °F 82% 30.21 in 5.0 mi ENE 9.2 mph - N/A   Overcast
2:00 PM 53 °F - 47 °F 75% 30.21 in 5 mi ENE 8.9 mph - -   Mist
2:00 PM 51.8 °F - 48.2 °F 88% 30.18 in 5.0 mi East 9.2 mph - N/A   Overcast
2:30 PM 51.8 °F - 48.2 °F 88% 30.18 in 5.0 mi East 6.9 mph - N/A   Overcast
3:00 PM 53.6 °F - 46.4 °F 77% 30.18 in 4.3 mi East 8.1 mph - N/A   Overcast
3:30 PM 53.6 °F - 48.2 °F 82% 30.18 in 4.3 mi ENE 9.2 mph - N/A   Overcast
4:00 PM 53.6 °F - 48.2 °F 82% 30.15 in 5.0 mi ENE 10.4 mph - N/A   Overcast
4:30 PM 53.6 °F - 48.2 °F 82% 30.15 in 5.6 mi ENE 8.1 mph - N/A   Overcast
5:00 PM 53.6 °F - 48.2 °F 82% 30.15 in 5.6 mi East 10.4 mph - N/A   Overcast
5:30 PM 55.4 °F - 48.2 °F 77% 30.15 in 6.2 mi East 9.2 mph - N/A   Overcast
6:00 PM 55.4 °F - 48.2 °F 77% 30.12 in 6.2 mi ENE 10.4 mph - N/A   Overcast
6:30 PM 55.4 °F - 48.2 °F 77% 30.12 in 6.2 mi ENE 9.2 mph - N/A   Overcast
7:00 PM 55.4 °F - 48.2 °F 77% 30.12 in 6.2 mi ENE 8.1 mph - N/A   Scattered Clouds
7:30 PM 53.6 °F - 48.2 °F 82% 30.12 in - ENE 8.1 mph - N/A   Clear
8:00 PM 54 °F - 48 °F 74% 30.13 in 6 mi NE 6.7 mph - -   Scattered Clouds
8:00 PM 53.6 °F - 48.2 °F 82% 30.12 in - NNE 3.5 mph - N/A   Clear
8:30 PM 53.6 °F - 48.2 °F 82% 30.12 in 5.0 mi NNE 5.8 mph - N/A   Unknown
9:00 PM 50.0 °F - 46.4 °F 87% 30.12 in 5.0 mi NE 4.6 mph - N/A   Unknown
9:30 PM 51.8 °F - 46.4 °F 82% 30.12 in - East 6.9 mph - N/A   Clear
10:00 PM 50.0 °F - 46.4 °F 87% 30.12 in - East 10.4 mph - N/A   Clear
10:30 PM 50.0 °F - 46.4 °F 87% 30.12 in - East 9.2 mph - N/A   Clear
11:00 PM 50.0 °F - 46.4 °F 87% 30.09 in - East 11.5 mph - N/A   Clear
11:30 PM 48.2 °F - 46.4 °F 93% 30.09 in - East 12.7 mph - N/A   Clear
11:36 PM 48.2 °F - 46.4 °F 93% 30.12 in 6.2 mi East 6.9 mph - N/A Thunderstorm Partly Cloudy
11:53 PM 50.0 °F - 46.4 °F 87% 30.15 in 6.2 mi WSW 5.8 mph - N/A Thunderstorm Thunderstorm